This is the latest recevied weather packets stored in our database for station/object W7JFO-3. If no packets are shown the sender has not sent any weather packets the latest 10 day(s).
| Time | Temp. | Humidity | Pressure | Rain* | Wind** | Luminosity | Snow |
|---|---|---|---|---|---|---|---|
| 1777294923 | -2.78° C | 70% | 1016 hPa | 0 mm | - | 21 W/m² | - |
| 1777294023 | -2.78° C | 68% | 1015.8 hPa | 0 mm | - | 7 W/m² | - |
| 1777293123 | -2.22° C | 64% | 1015.6 hPa | 0 mm | - | 0 W/m² | - |
| 1777292223 | -2.22° C | 65% | 1015.6 hPa | 0 mm | - | 0 W/m² | - |
| 1777291323 | -2.22° C | 64% | 1015.7 hPa | 0 mm | - | 0 W/m² | - |
| 1777290423 | -2.22° C | 63% | 1015.6 hPa | 0 mm | - | 0 W/m² | - |
| 1777289523 | -2.22° C | 63% | 1015.7 hPa | 0 mm | - | 0 W/m² | - |
| 1777288623 | -1.67° C | 61% | 1015.5 hPa | 0 mm | - | 0 W/m² | - |
| 1777287723 | -2.22° C | 62% | 1015.3 hPa | 0 mm | - | 0 W/m² | - |
| 1777286823 | -2.22° C | 62% | 1015.2 hPa | 0 mm | - | 0 W/m² | - |
| 1777285923 | -2.22° C | 62% | 1015.3 hPa | 0 mm | - | 0 W/m² | - |
| 1777285023 | -2.22° C | 61% | 1015.4 hPa | 0 mm | - | 0 W/m² | - |
| 1777284123 | -1.67° C | 60% | 1015.3 hPa | 0 mm | - | 0 W/m² | - |
| 1777283223 | -1.67° C | 60% | 1015.3 hPa | 0 mm | - | 0 W/m² | - |
| 1777282324 | -1.67° C | 60% | 1015.4 hPa | 0 mm | - | 0 W/m² | - |
| 1777281423 | -1.67° C | 59% | 1015.5 hPa | 0 mm | - | 0 W/m² | - |
| 1777280523 | -1.67° C | 60% | 1015.5 hPa | 0 mm | - | 0 W/m² | - |
| 1777279623 | -1.67° C | 59% | 1015.5 hPa | 0 mm | - | 0 W/m² | - |
| 1777278723 | -1.67° C | 59% | 1015.6 hPa | 0 mm | - | 0 W/m² | - |
| 1777277823 | -1.67° C | 58% | 1015.7 hPa | 0 mm | - | 0 W/m² | - |
| 1777276924 | -1.67° C | 58% | 1015.9 hPa | 0 mm | - | 0 W/m² | - |
| 1777276023 | -1.11° C | 58% | 1015.9 hPa | 0 mm | - | 0 W/m² | - |
| 1777275123 | -1.67° C | 58% | 1015.8 hPa | 0 mm | - | 0 W/m² | - |
| 1777274224 | -1.67° C | 58% | 1015.8 hPa | 0 mm | - | 0 W/m² | - |
| 1777273324 | -1.67° C | 59% | 1015.8 hPa | 0 mm | - | 0 W/m² | - |
* Rain latest hour (hover to see other rain measurements)
** Current wind speed in m/s (hover to see current wind gust speed)